Regional Weather Roundup
Issued by NWS Newport/Morehead, NC

Current Version | Previous Version | Text Only | Print | Product List | Glossary On
Versions: 1 2 3 4 5 6 7 8 9 10 11 12 13 14 15 16 17 18 19 20 21 22 23 24 25 26 27 28 29 30 31 32 33 34 35 36 37 38 39 40 41 42 43 44 45 46 47 48 49 50
000 ASUS42 KMHX 190113 RWRMHX WEATHER ROUNDUP FOR EASTERN NORTH CAROLINA NATIONAL WEATHER SERVICE NEWPORT/MOREHEAD CITY NC 800 PM EST SAT NOV 18 2017 NOTE: "FAIR" INDICATES FEW OR NO CLOUDS BELOW 12,000 FEET WITH NO SIGNIFICANT WEATHER AND/OR OBSTRUCTIONS TO VISIBILITY NCZ015>017-031-032-045>047-102-103-190200- NORTH COAST CITY SKY/WX TMP DP RH WIND PRES REMARKS EDENTON PTCLDY 62 54 74 S13 29.76F ELIZABETH CITY CLOUDY 62 56 80 S13 29.75F KITTY HAWK PTCLDY 61 55 81 S7 29.78F MANTEO MOCLDY 59 55 87 SW12 29.80F $$ NCZ045>047-081-094-103-104-190200- CENTRAL COAST CITY SKY/WX TMP DP RH WIND PRES REMARKS FRISCO CLOUDY 66 60 81 SW12G18 29.83S $$ NCZ095-097-098-100-101-190200- SOUTHERN COAST CITY SKY/WX TMP DP RH WIND PRES REMARKS BEAUFORT CLOUDY 67 61 81 SW16 29.83R CEDAR ISLAND NOT AVBL JACKSONVILLE CLOUDY 66 59 78 SW9 29.81S PINEY ISLAND NOT AVBL WILMINGTON PTCLDY 66 56 70 SW9 29.83S $$ NCZ011>013-027>030-043-044-078>080-089-090>093-098-190200- COASTAL PLAIN CITY SKY/WX TMP DP RH WIND PRES REMARKS AHOSKIE CLOUDY 60 53 75 S7 29.73F CLINTON CLOUDY 63 58 85 S7 29.78F ELIZABETHTOWN NOT AVBL GOLDSBORO CLOUDY 62 56 80 S8 29.74F GREENVILLE CLOUDY 63 55 77 S13 29.78F HAVELOCK CLOUDY 68 61 78 SW15G23 29.82S KENANSVILLE CLOUDY 63 57 82 SW3 29.78F KINSTON CLOUDY 63 55 77 S12 29.77F NEW BERN CLOUDY 65 60 84 S12 29.81F RICHLANDS CLOUDY 63 57 81 S12 29.80F ROCKY MOUNT CLOUDY 63 56 78 S9 29.73F WASHINGTON CLOUDY 61 56 82 S6 29.77F WHITEVILLE PTCLDY 64 56 75 S8 29.81F $$ AMZ130-135-150-152-154-156-158-170-250-252-270-ANZ085-086-088-633-658-670-190200- MARINE OBSERVATIONS STATION/POSITION TIME TEMP WIND PRES WAVE SWELL AIR SEA DIR/SP/G HT/PER HT/PER (UTC) (F) (DEG/KT/KT) (MB) (FT/S) (FT/S) CHESAPEAKE LIGHT NOT AVBL 64 E VA BEACH 0050 64 62 200/ 19/ 23 1008.0 5/ 6 2/11 DUCK NOT AVBL 2 E DUCK 0100 60 N/A 2/12 OREGON INLET NOT AVBL 13E OREGON INLT 0048 60 N/A 3/11 HATTERAS CG NOT AVBL DIAMOND BUOY 0040 71 68 200/ 25/ 31 1010.4 CAPE LOOKOUT 0000 68 190/ 15/ 17 1010.3 BEAUFORT LAB NOT AVBL 30 SE NEW RVR IN 0008 72 70 210/ 19/ 23 1010.0 30 SE NEW RVR IN 0100 70 N/A 6/ 6 27 SE WRIGHTSVLE 0008 69 67 220/ 16/ 23 1010.4 5 SE WRIGHTSVLE 0008 66 64 230/ 12/ 16 1009.9 225 S CAPE HAT 2350 71 77 170/ 10/ 14 1014.6 4/ 8 5/ 8 41 SE CHARLESTON 0040 73 76 210/ 23/ 29 1011.1 $$

USA.gov is the U.S. government's official web portal to all federal, state and local government web resources and services.